Latest Coastal Weather Observations for Flinders Reef

IDQ60701

Issued at 11:32 am EST Thursday 21 September 2017 (issued every 10 minutes, with the page automatically refreshed every 10 minutes)

About coastal observations | Map of coastal stations | Coastal observations for QLD | Marine services | Other Formats
Station Details ID: 200783 Name: FLINDERS REEF Lat: -17.72 Lon: 148.45 Height: 2.6 m
Data from the previous 72 hours. | See also: Recent months at Flinders Reef
Date/Time
EST
Temp
°C
Wind Pressure Rain since
9am
mm
Weather Cloud Vis
km
Sea
Height
m
Swell
Dir  Spd
kts
Gust
kts
hPa Trend Height
m
Period
s
Dir
21/11:30am 24.2 ESE 12 13 1016.7 - - - - - - - - -
21/11:24am 24.1 ESE 12 12 1016.6 - - - - - - - - -
21/11:00am 24.2 ESE 12 13 1016.8 - - - - - - - - -
21/10:30am 24.1 ESE 13 15 1017.0 - - - - - - - - -
21/10:24am 23.8 ESE 13 - 1016.9 - - - - - - - - -
21/10:00am 24.0 ESE 13 14 1017.1 - - - - - - - - -
21/09:30am 24.2 ESE 12 14 1017.2 - - - - - - - - -
21/09:24am 23.9 ESE 12 - 1017.1 - - - - - - - - -
21/09:00am 24.3 SE 13 15 1017.2 - - - - - - - - -
21/08:30am 23.9 ESE 13 15 1017.1 - - - - - - - - -
21/08:24am 23.9 SE 13 - 1017.0 - - - - - - - - -
21/08:00am 24.0 SE 13 15 1017.0 - - - - - - - - -
21/07:30am 24.0 SE 13 15 1016.7 - - - - - - - - -
21/07:24am 23.8 SE 13 - 1016.5 - - - - - - - - -
21/07:00am 23.9 SE 12 14 1016.2 - - - - - - - - -
21/06:30am 23.6 SE 12 14 1015.8 - - - - - - - - -
21/06:24am 23.8 SE 13 - 1015.7 - - - - - - - - -
21/06:00am 23.5 SE 12 14 1015.5 - - - - - - - - -
21/05:30am 23.4 SE 12 14 1015.3 - - - - - - - - -
21/05:24am 23.6 SE 12 - 1015.1 - - - - - - - - -
21/05:00am 23.5 SE 12 15 1015.0 - - - - - - - - -
21/04:30am 23.4 SE 12 13 1014.8 - - - - - - - - -
21/04:24am 23.6 SE 11 - 1014.5 - - - - - - - - -
21/04:00am 23.5 SE 11 13 1014.5 - - - - - - - - -
21/03:30am 23.7 SE 12 13 1014.4 - - - - - - - - -
21/03:24am 23.6 SE 11 - 1014.3 - - - - - - - - -
21/03:00am 23.7 ESE 11 12 1014.5 - - - - - - - - -
21/02:30am 23.6 ESE 11 13 1014.6 - - - - - - - - -
21/02:24am 23.7 ESE 12 - 1014.5 - - - - - - - - -
21/02:00am 23.6 E 12 14 1014.7 - - - - - - - - -
21/01:30am 23.7 ESE 13 15 1015.0 - - - - - - - - -
21/01:24am 23.6 ESE 13 - 1014.9 - - - - - - - - -
21/01:00am 23.7 ESE 12 14 1015.3 - - - - - - - - -
21/12:30am 23.7 E 13 14 1015.5 - - - - - - - - -
21/12:24am 23.6 E 13 - 1015.5 - - - - - - - - -
21/12:00am 24.0 E 13 15 1015.8 - - - - - - - - -
 
Date/Time
EST
Temp
°C
Wind Pressure Rain since
9am
mm
Weather Cloud Vis
km
Sea
Height
m
Swell
Dir  Spd
kts
Gust
kts
hPa Trend Height
m
Period
s
Dir
20/11:30pm 23.8 E 14 15 1016.2 - - - - - - - - -
20/11:24pm 23.9 ESE 14 - 1016.1 - - - - - - - - -
20/11:00pm 24.0 ESE 13 15 1016.4 - - - - - - - - -
20/10:30pm 24.0 ESE 13 15 1016.3 - - - - - - - - -
20/10:24pm 24.0 ESE 13 - 1016.2 - - - - - - - - -
20/10:00pm 24.0 ESE 13 16 1016.2 - - - - - - - - -
20/09:30pm 24.0 ESE 13 14 1016.3 - - - - - - - - -
20/09:24pm 24.0 ESE 13 - 1016.2 - - - - - - - - -
20/09:00pm 24.2 SE 13 14 1016.2 - - - - - - - - -
20/08:30pm 24.0 SE 12 14 1016.0 - - - - - - - - -
20/08:24pm 24.0 SE 12 - 1015.9 - - - - - - - - -
20/08:00pm 24.1 SE 13 14 1015.8 - - - - - - - - -
20/07:30pm 24.0 SE 12 14 1015.7 - - - - - - - - -
20/07:24pm 24.3 SE 13 - 1015.6 - - - - - - - - -
20/07:00pm 24.2 SE 12 15 1015.4 - - - - - - - - -
20/06:30pm 24.0 SSE 12 14 1015.1 - - - - - - - - -
20/06:24pm 24.2 SSE 12 - 1015.0 - - - - - - - - -
20/06:00pm 24.1 SE 11 13 1014.9 - - - - - - - - -
20/05:30pm 24.4 SE 11 12 1014.6 - - - - - - - - -
20/05:24pm 24.2 SE 10 - 1014.5 - - - - - - - - -
20/05:00pm 24.2 SE 10 11 1014.5 - - - - - - - - -
20/04:30pm 24.2 SE 11 12 1014.2 - - - - - - - - -
20/04:24pm 24.2 SE 10 - 1014.0 - - - - - - - - -
20/04:00pm 24.3 SSE 10 11 1014.2 - - - - - - - - -
20/03:30pm 24.3 SE 10 12 1014.2 - - - - - - - - -
20/03:24pm 24.5 SE 10 - 1014.1 - - - - - - - - -
20/03:00pm 24.5 SE 10 11 1014.3 - - - - - - - - -
20/02:30pm 24.3 SE 10 11 1014.4 - - - - - - - - -
20/02:24pm 24.3 SE 10 - 1014.4 - - - - - - - - -
20/02:00pm 24.4 SE 9 11 1014.7 - - - - - - - - -
20/01:30pm 24.6 SE 10 11 1015.3 - - - - - - - - -
20/01:24pm 24.3 SE 10 - 1015.2 - - - - - - - - -
20/01:00pm 24.6 SE 9 11 1015.5 - - - - - - - - -
20/12:30pm 24.4 SE 10 11 1015.8 - - - - - - - - -
20/12:24pm 24.3 SE 10 - 1015.9 - - - - - - - - -
20/12:00pm 24.3 SE 10 11 1016.2 - - - - - - - - -
20/11:30am 24.6 SE 9 11 1016.4 - - - - - - - - -
20/11:24am 24.4 SE 9 - 1016.5 - - - - - - - - -
20/11:00am 24.3 SE 9 11 1016.9 - - - - - - - - -
20/10:30am 24.2 ESE 10 11 1017.1 - - - - - - - - -
20/10:24am 24.2 ESE 10 - 1017.0 - - - - - - - - -
20/10:00am 24.1 ESE 10 11 1017.2 - - - - - - - - -
20/09:30am 24.4 E 12 14 1017.0 - - - - - - - - -
20/09:24am 24.5 E 12 - 1017.0 - - - - - - - - -
20/09:00am 24.4 E 11 12 1017.4 - - - - - - - - -
20/08:30am 24.1 ESE 9 10 1017.8 - - - - - - - - -
20/08:24am 24.1 ESE 9 - 1017.5 - - - - - - - - -
20/08:00am 24.1 ESE 7 8 1018.0 - - - - - - - - -
20/07:30am 23.9 E 7 9 1017.9 - - - - - - - - -
20/07:24am 23.8 E 8 - 1017.6 - - - - - - - - -
20/07:00am 24.0 E 14 16 1016.7 - - - - - - - - -
20/06:30am 23.7 E 14 16 1016.3 - - - - - - - - -
20/06:24am 23.7 E 14 - 1016.0 - - - - - - - - -
20/06:00am 23.7 E 11 12 1016.2 - - - - - - - - -
20/05:30am 23.8 E 11 13 1016.1 - - - - - - - - -
20/05:24am 23.8 E 12 - 1015.8 - - - - - - - - -
20/05:00am 23.8 ESE 8 9 1016.3 - - - - - - - - -
20/04:30am 23.6 SE 11 12 1015.8 - - - - - - - - -
20/04:24am 23.7 SE 11 - 1015.6 - - - - - - - - -
20/04:00am 23.5 SE 11 13 1015.8 - - - - - - - - -
20/03:30am 23.6 SSE 10 12 1016.1 - - - - - - - - -
20/03:24am 23.6 SE 11 - 1015.9 - - - - - - - - -
20/03:00am 23.5 ESE 12 13 1015.6 - - - - - - - - -
20/02:30am 23.6 ESE 10 12 1016.1 - - - - - - - - -
20/02:24am 23.6 ESE 10 - 1015.8 - - - - - - - - -
20/02:00am 23.5 SE 11 12 1016.5 - - - - - - - - -
20/01:30am 23.5 ESE 11 12 1016.6 - - - - - - - - -
20/01:24am 23.4 ESE 12 - 1016.6 - - - - - - - - -
20/01:00am 23.6 ESE 12 14 1016.8 - - - - - - - - -
20/12:30am 23.7 SE 11 13 1017.1 - - - - - - - - -
20/12:24am 23.8 SE 10 - 1017.3 - - - - - - - - -
20/12:00am 23.8 SE 13 15 1017.5 - - - - - - - - -
 
Date/Time
EST
Temp
°C
Wind Pressure Rain since
9am
mm
Weather Cloud Vis
km
Sea
Height
m
Swell
Dir  Spd
kts
Gust
kts
hPa Trend Height
m
Period
s
Dir
19/11:30pm 23.8 SE 14 15 1018.2 - - - - - - - - -
19/11:24pm 23.9 SE 14 - 1018.0 - - - - - - - - -
19/11:00pm 24.0 SE 13 15 1018.2 - - - - - - - - -
19/10:30pm 24.1 SE 13 15 1018.5 - - - - - - - - -
19/10:24pm 23.9 SE 14 - 1018.3 - - - - - - - - -
19/10:00pm 24.0 SE 15 17 1018.3 - - - - - - - - -
19/09:30pm 24.3 SSE 15 18 1018.5 - - - - - - - - -
19/09:24pm 24.0 SSE 15 - 1018.4 - - - - - - - - -
19/09:00pm 24.0 SE 15 18 1018.3 - - - - - - - - -
19/08:30pm 24.0 SE 16 18 1018.1 - - - - - - - - -
19/08:24pm 23.9 SE 15 - 1017.9 - - - - - - - - -
19/08:00pm 23.9 SE 16 18 1018.0 - - - - - - - - -
19/07:30pm 24.0 SSE 15 18 1017.8 - - - - - - - - -
19/07:24pm 24.0 SSE 15 - 1017.6 - - - - - - - - -
19/07:00pm 23.8 SSE 15 17 1017.5 - - - - - - - - -
19/06:30pm 23.5 SSE 14 17 1017.5 - - - - - - - - -
19/06:24pm 23.5 SSE 13 - 1017.3 - - - - - - - - -
19/06:00pm 23.6 SSE 16 19 1017.3 - - - - - - - - -
19/05:30pm 23.7 SSE 16 18 1017.0 - - - - - - - - -
19/05:24pm 23.7 SSE 16 - 1016.9 - - - - - - - - -
19/05:00pm 23.6 SSE 16 19 1016.8 - - - - - - - - -
19/04:30pm 23.8 SSE 18 20 1016.3 - - - - - - - - -
19/04:24pm 23.7 SSE 17 - 1016.3 - - - - - - - - -
19/04:00pm 24.0 SSE 17 19 1016.2 - - - - - - - - -
19/03:30pm 24.3 SE 15 17 1016.2 - - - - - - - - -
19/03:24pm 24.1 SE 16 - 1016.0 - - - - - - - - -
19/03:00pm 24.0 SSE 16 19 1016.1 - - - - - - - - -
19/02:30pm 23.9 SE 15 17 1016.4 - - - - - - - - -
19/02:24pm 24.1 SE 15 - 1016.4 - - - - - - - - -
19/02:00pm 24.3 SE 15 17 1016.6 - - - - - - - - -
19/01:30pm 24.2 SE 15 17 1016.8 - - - - - - - - -
19/01:24pm 24.3 SE 15 - 1016.7 - - - - - - - - -
19/01:00pm 24.3 SE 15 18 1017.3 - - - - - - - - -
19/12:30pm 24.3 SE 14 17 1017.7 - - - - - - - - -
19/12:24pm 24.4 SE 15 - 1017.7 - - - - - - - - -
19/12:00pm 24.3 SE 14 17 1018.2 - - - - - - - - -
19/11:30am 24.2 SE 16 18 1018.4 - - - - - - - - -
19/11:24am 24.3 ESE 16 - 1018.4 - - - - - - - - -
19/11:00am 24.4 ESE 15 17 1019.0 - - - - - - - - -
19/10:30am 24.2 ESE 16 18 1019.4 - - - - - - - - -
19/10:24am 24.2 ESE 15 - 1019.3 - - - - - - - - -
19/10:00am 24.3 ESE 16 18 1019.4 - - - - - - - - -
19/09:30am 24.1 ESE 16 19 1019.4 - - - - - - - - -
19/09:24am 24.2 ESE 17 - 1019.3 - - - - - - - - -
19/09:00am 24.3 ESE 16 18 1019.4 - - - - - - - - -
19/08:30am 24.2 ESE 16 18 1019.6 - - - - - - - - -
19/08:24am 24.3 ESE 16 - 1019.5 - - - - - - - - -
19/08:00am 24.2 ESE 16 18 1019.6 - - - - - - - - -
19/07:30am 24.0 ESE 15 19 1019.1 - - - - - - - - -
19/07:24am 24.2 ESE 17 - 1019.0 - - - - - - - - -
19/07:00am 23.9 ESE 16 19 1018.7 - - - - - - - - -
19/06:30am 24.0 ESE 17 19 1018.2 - - - - - - - - -
19/06:24am 24.0 ESE 17 - 1018.0 - - - - - - - - -
19/06:00am 23.9 ESE 17 19 1017.9 - - - - - - - - -
19/05:30am 23.9 ESE 17 20 1017.6 - - - - - - - - -
19/05:24am 24.0 ESE 17 - 1017.5 - - - - - - - - -
19/05:00am 23.9 ESE 18 21 1017.3 - - - - - - - - -
19/04:30am 23.9 ESE 20 22 1016.9 - - - - - - - - -
19/04:24am 23.8 ESE 19 - 1016.8 - - - - - - - - -
19/04:00am 23.5 SE 16 20 1016.8 - - - - - - - - -
19/03:30am 23.7 SE 17 19 1016.8 - - - - - - - - -
19/03:24am 23.6 SE 16 - 1016.7 - - - - - - - - -
19/03:00am 23.5 SE 17 20 1017.0 - - - - - - - - -
19/02:30am 23.5 SE 18 21 1017.1 - - - - - - - - -
19/02:24am 23.6 SE 18 - 1017.1 - - - - - - - - -
19/02:00am 23.5 SE 18 20 1017.3 - - - - - - - - -
19/01:30am 23.4 SE 18 20 1017.7 - - - - - - - - -
19/01:24am 23.5 SE 18 - 1017.7 - - - - - - - - -
19/01:00am 23.4 SE 18 20 1018.1 - - - - - - - - -
19/12:30am 23.4 SE 18 20 1018.4 - - - - - - - - -
19/12:24am 23.4 SE 18 - 1018.4 - - - - - - - - -
19/12:00am 23.3 SE 17 20 1018.9 - - - - - - - - -
 
Date/Time
EST
Temp
°C
Wind Pressure Rain since
9am
mm
Weather Cloud Vis
km
Sea
Height
m
Swell
Dir  Spd
kts
Gust
kts
hPa Trend Height
m
Period
s
Dir
18/11:30pm 23.4 SE 18 20 1019.2 - - - - - - - - -
18/11:24pm 23.2 SE 18 - 1019.1 - - - - - - - - -
18/11:00pm 23.2 SE 19 22 1019.2 - - - - - - - - -
18/10:30pm 23.2 ESE 17 20 1019.6 - - - - - - - - -
18/10:24pm 23.2 SE 17 - 1019.6 - - - - - - - - -
18/10:00pm 23.3 SE 18 21 1019.8 - - - - - - - - -
18/09:30pm 23.1 SE 19 22 1019.6 - - - - - - - - -
18/09:24pm 23.2 SE 19 - 1019.5 - - - - - - - - -
18/09:00pm 23.1 SE 18 22 1019.5 - - - - - - - - -
18/08:30pm 22.9 SE 19 22 1019.3 - - - - - - - - -
18/08:24pm 22.7 SE 19 - 1019.2 - - - - - - - - -
18/08:00pm 22.8 SE 19 22 1019.1 - - - - - - - - -
18/07:30pm 22.7 SE 19 21 1018.9 - - - - - - - - -
18/07:24pm 22.8 SE 20 - 1018.7 - - - - - - - - -
18/07:00pm 22.8 SE 20 23 1018.5 - - - - - - - - -
18/06:30pm 22.5 SE 20 23 1018.2 - - - - - - - - -
18/06:24pm 22.4 SE 20 - 1018.1 - - - - - - - - -
18/06:00pm 22.3 SE 19 22 1018.2 - - - - - - - - -
18/05:30pm 22.2 SE 21 24 1017.9 - - - - - - - - -
18/05:24pm 22.1 SE 20 - 1017.7 - - - - - - - - -
18/05:00pm 22.0 SE 20 22 1017.4 - - - - - - - - -
18/04:30pm 22.5 SE 20 23 1017.3 - - - - - - - - -
18/04:24pm 22.3 SE 19 - 1017.3 - - - - - - - - -
18/04:00pm 22.2 SE 19 22 1017.6 - - - - - - - - -
18/03:24pm 22.1 SE 20 - 1017.3 - - - - - - - - -
18/03:00pm 22.2 SE 19 23 1017.4 - - - - - - - - -
18/02:30pm 22.0 SE 19 22 1017.3 - - - - - - - - -
18/02:24pm 22.4 SE 17 - 1017.3 - - - - - - - - -
18/02:00pm 22.7 ESE 17 21 1017.6 - - - - - - - - -
18/01:30pm 22.8 SE 16 19 1018.0 - - - - - - - - -
18/01:24pm 22.5 SSE 17 - 1017.9 - - - - - - - - -
18/01:00pm 22.4 SSE 20 23 1018.1 - - - - - - - - -
18/12:30pm 22.9 SSE 18 20 1018.5 - - - - - - - - -
18/12:24pm 22.8 SSE 18 - 1018.5 - - - - - - - - -
18/12:00pm 22.8 SE 18 20 1019.0 - - - - - - - - -

Other Formats:

Comma delimited format used in spreadsheet applications
http://www.bom.gov.au/fwo/IDQ60701/IDQ60701.94290.axf

JavaScript Object Notation format (JSON) in row-major order
http://www.bom.gov.au/fwo/IDQ60701/IDQ60701.94290.json